Temp
50 51 51 51 52 52 52 52 52 52 53 56 56 55 55 54 54 51 48 50 47 44 46 47 49 44 45 44 41 41 40 40 38 35 35 36 33 36 32 35 33 33 30 29 31 28 25 42 40 37 42 42 44 43
50 51 51 50 51 52 52 52 52 52 52 55 56 55 55 54 53 53 48 50 50 43 44 47 47 47 45 45 43 43 41 43 44 38 37 37 34 37 36 32 36 30 38 35 38 36 44 44 42 43 46 45 42 42
49 49 50 51 50 51 51 51 51 51 52 55 55 55 55 54 54 52 49 47 45 43 44 42 42 45 49 47 47 41 43 45 44 42 39 39 34 38 34 37 36 38 40 35 37 41 42 45 46 47 44 44 45 45
48 49 49 50 50 50 51 51 50 51 51 54 55 55 55 54 54 52 48 48 46 44 38 39 48 43 45 47 46 46 45 45 44 42 39 38 36 41 37 38 37 42 40 38 39 44 41 44 44 47 46 46 45 44
47 48 49 49 50 50 50 50 50 50 50 51 54 54 54 54 53 51 49 50 50 44 38 40 43 42 45 45 44 43 45 43 40 37 35 35 38 37 38 35 33 40 40 39 40 45 44 41 41 45 45 44 45 43
48 48 48 48 49 49 49 50 50 49 49 50 53 53 54 53 52 48 42 48 50 48 40 35 40 39 41 42 42 41 43 42 40 39 37 38 39 36 31 33 45 44 46 48 46 46 46 46 45 43 44 44 45 44
47 47 48 48 48 49 49 49 50 50 49 49 52 52 52 52 49 44 44 45 51 49 41 35 33 38 41 40 40 39 40 39 38 38 35 37 36 36 33 32 45 46 47 45 45 45 41 43 41 43 44 44 46 43
47 46 47 47 48 48 48 49 49 49 49 49 49 51 52 51 48 44 45 49 49 45 41 33 31 33 40 36 34 39 36 37 37 35 35 35 34 33 30 41 43 43 42 44 44 42 41 42 41 41 41 40 39 38
46 47 46 47 47 48 48 48 49 49 49 49 48 50 48 46 43 42 47 48 46 44 34 33 30 29 38 36 36 35 36 30 34 32 33 34 32 29 38 40 44 45 43 42 42 40 40 39 38 38 39 39 37 37
46 47 47 47 47 47 47 48 48 49 49 47 46 43 39 43 47 47 43 39 38 39 38 35 35 29 36 34 33 32 33 31 24 31 32 29 31 42 44 44 44 44 42 41 35 33 35 36 37 38 38 40 39 38
46 47 47 46 47 47 47 48 48 48 48 41 36 34 41 47 43 40 33 33 33 32 36 36 34 30 37 32 31 34 30 30 22 27 27 29 31 37 41 40 39 42 42 42 42 42 41 40 39 38 38 39 39 38
46 46 47 46 47 47 47 48 48 44 41 40 38 41 40 38 33 32 31 32 32 32 34 33 33 34 33 36 33 32 30 28 22 29 25 26 34 37 39 36 36 38 39 41 42 41 42 41 40 39 38 38 37 37
46 46 46 47 47 47 47 47 47 46 44 41 36 32 32 31 29 30 27 30 30 33 32 32 30 32 32 34 32 31 28 28 30 26 23 31 34 36 37 37 35 35 38 39 38 39 40 39 39 38 36 36 36 35
46 46 46 47 47 46 47 47 46 44 40 34 32 28 29 28 30 30 30 32 31 33 33 35 31 32 32 31 31 29 30 29 22 18 24 31 33 34 35 36 35 33 34 32 33 35 35 33 35 35 36 37 37 35
46 46 46 46 46 46 46 46 46 43 37 32 31 27 29 31 32 31 31 32 32 36 34 32 32 32 30 29 31 28 25 23 23 23 28 31 34 34 34 35 35 33 34 34 33 30 28 29 30 32 34 35 35 33
46 45 43 46 46 46 46 45 42 40 34 32 31 28 31 30 31 32 32 31 33 35 34 33 31 30 28 30 26 26 23 20 24 26 28 32 33 33 33 34 35 36 35 35 35 34 33 32 32 32 33 33 32 32
45 39 45 46 46 45 45 38 35 30 30 27 28 33 31 32 31 31 32 31 34 32 31 32 28 29 29 26 25 27 24 27 28 28 28 32 31 33 33 34 34 34 35 35 34 33 32 33 30 26 29 31 31 32
38 41 45 46 44 42 36 35 32 30 25 26 28 26 31 32 31 32 32 34 33 32 32 28 30 27 27 26 24 26 27 28 29 30 32 33 33 33 33 32 33 33 33 27 27 24 24 26 27 29 27 28 26 26
41 42 45 46 42 34 26 31 31 22 21 25 27 27 27 29 30 32 35 36 35 34 32 31 28 27 28 29 28 27 27 28 30 32 34 35 34 33 31 28 27 27 27 24 28 30 30 30 31 31 30 29 29 29
45 45 45 44 42 28 27 28 32 24 17 23 26 26 26 24 24 26 28 33 33 32 29 26 23 30 32 33 33 33 33 33 32 30 31 34 34 29 30 29 29 32 29 29 27 35 30 29 30 31 30 29 29 29
40 39 41 37 32 31 24 28 28 29 28 24 26 26 24 24 21 19 19 32 30 28 21 27 32 35 36 35 36 36 35 33 32 32 33 31 34 34 31 27 27 30 30 31 30 30 33 30 31 31 31 31 30 31
35 40 33 35 24 27 22 26 28 30 25 24 25 26 23 18 15 20 26 26 19 23 27 30 32 33 33 33 34 34 35 34 33 33 38 36 30 28 28 29 27 28 30 31 31 31 30 31 32 31 31 31 34 31
37 35 29 26 25 21 15 30 24 25 16 16 24 17 21 22 25 26 22 26 23 26 30 30 31 33 32 33 33 32 33 32 30 30 31 32 32 32 31 32 32 31 30 31 31 28 29 34 35 32 31 33 31 30
39 30 23 16 14 14 25 22 20 23 23 22 20 9 14 19 25 21 20 18 26 26 26 27 26 27 28 29 25 29 31 29 28 26 30 29 28 30 31 31 32 31 31 30 27 27 26 30 34 31 32 31 29 28
24 21 18 13 25 14 10 12 12 15 8 14 19 8 11 18 18 18 11 15 20 23 24 23 23 25 24 26 27 28 31 27 26 26 27 27 27 28 25 27 30 30 28 23 23 24 22 23 23 23 27 28 28 26
9 14 17 15 13 12 12 6 8 9 13 6 8 8 9 15 6 6 12 16 20 21 21 22 24 24 24 25 27 28 27 27 24 23 24 25 26 25 21 22 21 26 26 26 24 21 21 21 21 23 28 30 34 25
14 18 20 26 24 21 17 19 19 13 5 7 9 6 9 6 3 13 19 19 19 21 23 26 25 25 25 26 30 32 30 26 24 23 24 23 23 22 23 22 21 26 25 24 24 25 23 23 24 28 26 21 20 20
22 23 18 21 22 23 19 16 13 11 13 19 17 7 6 8 11 18 20 24 20 22 21 25 27 26 27 26 29 29 28 26 25 26 27 23 19 20 21 25 29 34 27 26 26 26 24 24 23 22 21 22 22 21
22 22 23 19 20 20 19 17 16 20 24 19 15 15 16 19 20 20 20 19 21 20 21 24 25 27 29 28 27 25 23 25 24 20 20 19 19 22 23 23 24 24 24 29 35 30 27 26 26 24 20 17 15 13
16 15 16 15 15 16 19 21 20 21 24 24 24 21 21 20 22 21 20 20 18 17 20 21 22 22 24 25 24 23 24 23 23 25 24 20 19 18 19 21 21 20 21 22 21 19 29 20 19 13 12 10 10 10
12 9 8 10 11 15 15 16 17 21 19 20 21 18 19 21 22 21 19 18 19 20 20 19 20 19 19 18 18 19 21 22 21 23 23 22 19 17 16 15 15 15 14 13 11 10 9 9 8 6 6 4 5 9
8 4 3 5 5 6 7 7 10 12 16 16 19 19 20 20 16 16 17 16 15 15 19 17 16 17 18 19 19 21 25 17 20 19 16 17 15 12 12 11 11 10 10 9 8 7 6 5 5 5 5 4 3 3
-1 -2 -3 -1 1 3 3 2 4 5 9 12 14 14 15 15 14 15 17 17 15 14 13 14 16 16 15 14 14 17 21 21 31 33 32 31 31 24 13 10 10 11 10 9 7 6 5 3 3 2 2 4 5 5
MSLP
1013.24 1012.81 1012.55 1012.31 1011.83 1011.65 1011.14 1010.89 1010.89 1010.66 1010.22 1010.55 1011.29 1012.03 1012.84 1013.57 1014.40 1015.10 1015.37 1015.41 1015.51 1015.21 1013.95 1013.58 1013.56 1013.62 1013.64 1013.88 1013.84 1014.30 1014.65 1014.74 1014.82 1014.59 1014.20 1013.60 1013.48 1013.03 1012.77 1012.05 1012.20 1012.57 1012.75 1012.66 1012.18 1011.53 1010.47 1009.29 1009.29 1009.26 1009.47 1009.52 1009.65 1009.98
1013.38 1013.05 1012.84 1012.51 1012.19 1012.09 1011.63 1011.13 1011.05 1010.72 1009.98 1009.65 1010.61 1011.36 1012.16 1012.99 1013.91 1014.48 1014.99 1015.33 1015.64 1015.81 1014.71 1014.25 1014.10 1014.23 1014.30 1014.32 1014.42 1014.27 1014.34 1014.10 1013.99 1014.29 1014.06 1013.91 1013.60 1013.17 1012.84 1012.40 1012.14 1012.10 1011.77 1011.61 1011.00 1010.21 1009.39 1009.35 1009.26 1009.29 1009.40 1009.83 1010.29 1010.55
1013.53 1013.34 1012.93 1012.52 1012.17 1011.82 1011.47 1011.38 1011.05 1010.37 1009.73 1009.00 1009.78 1010.66 1011.53 1012.41 1013.34 1014.09 1014.47 1015.26 1015.66 1015.33 1014.43 1014.45 1014.32 1014.45 1014.64 1014.52 1014.54 1014.70 1014.34 1014.24 1014.21 1014.28 1014.32 1014.21 1013.94 1013.31 1013.05 1012.46 1011.97 1011.61 1011.25 1011.43 1010.89 1009.16 1009.00 1009.05 1009.26 1009.55 1009.73 1010.15 1010.59 1010.86
1013.68 1013.44 1013.20 1012.92 1012.44 1012.14 1011.82 1011.29 1010.66 1010.23 1009.46 1008.62 1009.16 1009.97 1010.85 1011.88 1012.81 1013.72 1014.18 1014.51 1014.77 1014.64 1014.58 1014.45 1014.44 1014.53 1014.83 1014.76 1014.60 1014.56 1014.65 1014.63 1014.55 1014.56 1014.59 1014.53 1014.28 1013.62 1013.19 1012.73 1012.33 1011.40 1011.30 1010.85 1010.20 1009.18 1008.94 1008.95 1009.14 1009.45 1010.07 1010.52 1011.05 1011.35
1013.74 1013.57 1013.37 1013.05 1012.76 1012.28 1011.97 1011.31 1011.10 1010.62 1009.73 1008.83 1008.42 1009.44 1010.41 1011.37 1012.48 1013.44 1013.97 1013.99 1013.89 1014.58 1014.43 1014.31 1014.40 1014.85 1014.91 1014.91 1014.77 1014.65 1014.75 1014.83 1014.91 1015.05 1015.02 1014.74 1014.25 1014.19 1013.42 1013.11 1011.74 1010.72 1010.08 1010.07 1009.51 1009.01 1008.97 1009.48 1009.60 1009.68 1010.23 1010.71 1011.13 1011.60
1013.64 1013.56 1013.46 1013.23 1012.80 1012.69 1012.07 1011.82 1011.35 1010.56 1009.88 1008.96 1008.03 1008.74 1009.88 1011.10 1012.33 1013.46 1013.98 1013.50 1013.58 1013.96 1014.45 1014.43 1014.90 1014.91 1015.05 1014.96 1014.88 1014.85 1014.95 1015.06 1014.97 1015.00 1014.87 1014.49 1014.53 1014.57 1013.95 1012.47 1009.69 1009.14 1008.90 1008.86 1009.10 1009.21 1009.35 1009.83 1010.21 1010.43 1010.76 1011.14 1011.52 1011.99
1013.54 1013.45 1013.39 1013.20 1013.00 1012.55 1012.27 1011.81 1011.11 1010.55 1010.00 1009.25 1008.20 1008.61 1009.56 1010.85 1011.90 1012.64 1012.96 1012.80 1012.76 1013.51 1014.13 1014.49 1014.77 1015.16 1015.19 1015.22 1015.25 1015.29 1015.44 1015.32 1015.32 1015.13 1015.04 1014.80 1014.79 1014.53 1013.76 1011.80 1009.11 1008.38 1008.55 1008.86 1009.13 1009.59 1010.16 1010.37 1010.71 1011.02 1011.26 1011.60 1011.94 1012.39
1013.43 1013.37 1013.17 1012.90 1012.64 1012.26 1011.79 1011.46 1011.17 1010.73 1010.33 1009.93 1009.31 1009.12 1009.89 1010.89 1012.05 1012.57 1012.81 1012.72 1012.94 1013.40 1013.85 1014.43 1014.92 1015.39 1015.34 1015.26 1015.47 1015.52 1015.70 1015.70 1015.51 1015.43 1015.27 1015.05 1014.90 1014.35 1012.85 1009.79 1008.94 1008.80 1008.79 1008.98 1009.44 1009.90 1010.30 1010.62 1011.16 1011.64 1012.02 1012.43 1012.91 1013.43
1013.32 1013.12 1012.93 1012.81 1012.62 1012.33 1012.01 1011.60 1011.25 1010.92 1010.56 1010.09 1009.72 1009.67 1010.34 1011.08 1011.83 1012.50 1012.88 1013.20 1013.23 1013.56 1013.66 1014.28 1014.63 1015.05 1015.30 1015.31 1015.42 1015.74 1015.74 1016.01 1015.96 1015.73 1015.41 1015.28 1014.17 1012.88 1009.84 1009.02 1008.74 1008.55 1008.78 1009.10 1009.76 1010.35 1010.87 1011.28 1011.77 1012.12 1012.47 1012.98 1013.47 1014.01
1013.08 1012.95 1012.83 1012.68 1012.52 1012.32 1011.95 1011.52 1011.19 1010.89 1010.47 1010.20 1009.77 1009.71 1010.81 1010.90 1011.64 1012.37 1013.20 1013.56 1013.52 1013.38 1013.73 1013.89 1013.95 1014.88 1014.94 1015.19 1015.39 1015.72 1015.86 1015.91 1016.13 1015.61 1015.49 1015.01 1012.69 1010.01 1009.02 1008.64 1008.73 1008.71 1008.98 1009.39 1010.34 1011.05 1011.27 1011.59 1011.95 1012.28 1012.56 1012.93 1013.33 1013.82
1012.78 1012.70 1012.56 1012.50 1012.49 1012.36 1012.00 1011.61 1011.17 1010.66 1010.26 1010.50 1010.71 1011.03 1011.18 1011.34 1011.30 1012.26 1012.94 1013.20 1013.38 1013.52 1013.38 1013.40 1013.61 1014.30 1014.77 1014.81 1015.06 1015.45 1015.77 1015.96 1016.25 1015.77 1015.69 1014.32 1012.09 1009.78 1009.16 1009.01 1008.90 1008.81 1008.99 1009.37 1009.69 1009.91 1010.38 1010.83 1011.59 1012.23 1012.75 1013.12 1013.61 1014.09
1012.47 1012.49 1012.38 1012.34 1012.34 1012.22 1011.99 1011.69 1011.25 1010.79 1011.00 1011.09 1011.27 1011.39 1011.45 1011.40 1011.70 1012.15 1012.39 1012.62 1012.69 1012.54 1012.82 1013.19 1013.69 1013.92 1014.71 1014.61 1014.93 1015.55 1015.70 1016.18 1016.08 1015.79 1015.75 1013.88 1010.95 1010.12 1009.68 1009.55 1009.53 1009.37 1009.36 1009.69 1009.87 1010.23 1010.57 1010.96 1011.47 1012.14 1012.72 1013.26 1013.76 1014.29
1012.12 1012.21 1012.22 1012.27 1012.42 1012.47 1012.14 1011.72 1011.41 1011.34 1011.43 1011.51 1011.54 1011.56 1011.27 1011.53 1011.48 1011.64 1011.67 1011.74 1011.94 1011.92 1012.56 1013.13 1013.79 1014.17 1014.83 1014.84 1015.14 1015.44 1015.77 1016.01 1015.84 1015.83 1014.62 1012.17 1011.19 1010.79 1010.42 1010.13 1010.04 1010.00 1009.89 1010.22 1010.54 1010.72 1010.95 1011.31 1011.72 1012.27 1012.98 1013.49 1014.06 1014.67
1011.95 1012.01 1012.03 1012.21 1012.31 1012.22 1012.02 1011.89 1011.71 1011.59 1011.55 1011.38 1011.49 1011.46 1011.19 1011.33 1011.30 1011.26 1011.33 1011.32 1011.83 1011.78 1012.23 1012.70 1013.58 1013.95 1014.52 1014.73 1014.87 1015.19 1015.44 1015.64 1015.89 1015.25 1013.41 1012.13 1011.79 1011.33 1010.85 1010.62 1010.63 1010.62 1010.69 1010.94 1011.32 1011.46 1011.75 1012.05 1012.44 1012.79 1013.24 1013.71 1014.24 1014.97
1011.85 1011.88 1011.92 1012.20 1012.32 1012.40 1012.28 1012.05 1011.87 1011.89 1011.91 1011.90 1011.78 1011.50 1011.37 1011.52 1011.72 1011.93 1011.96 1012.07 1012.32 1012.07 1012.39 1012.95 1013.50 1013.87 1014.17 1014.37 1014.55 1015.14 1015.53 1015.15 1014.57 1013.35 1012.83 1012.33 1011.93 1011.66 1011.35 1011.03 1010.99 1011.08 1011.22 1011.51 1011.88 1012.36 1012.60 1012.79 1013.08 1013.44 1013.75 1014.04 1014.56 1015.23
1011.77 1011.97 1012.08 1012.20 1012.44 1012.47 1012.34 1012.13 1012.01 1011.93 1012.41 1012.51 1012.31 1012.12 1011.95 1011.87 1012.02 1012.12 1012.13 1012.48 1012.67 1012.59 1012.76 1012.82 1013.17 1013.45 1013.47 1013.48 1013.98 1014.01 1014.39 1013.99 1013.64 1013.20 1012.97 1012.46 1012.09 1011.80 1011.61 1011.53 1011.47 1011.36 1011.50 1011.76 1012.11 1012.55 1013.04 1013.40 1013.56 1013.74 1014.01 1014.26 1014.67 1015.11
1011.81 1011.97 1011.98 1012.15 1012.38 1012.51 1012.45 1012.46 1012.65 1013.09 1013.27 1013.06 1012.92 1012.75 1012.53 1012.45 1012.47 1012.59 1012.58 1012.93 1013.10 1013.12 1012.94 1012.82 1012.90 1012.84 1013.07 1013.12 1013.19 1013.05 1013.29 1013.30 1013.55 1013.40 1013.11 1012.58 1012.35 1012.04 1011.82 1011.69 1011.83 1011.98 1012.01 1012.15 1012.41 1012.75 1013.16 1013.54 1013.88 1014.22 1014.64 1014.77 1014.93 1015.19
1011.94 1011.95 1011.96 1012.15 1012.43 1012.66 1013.20 1013.39 1013.68 1013.82 1013.70 1013.63 1013.48 1013.59 1013.30 1013.14 1013.14 1013.22 1013.29 1013.21 1013.20 1013.22 1013.19 1013.35 1013.25 1013.00 1012.81 1012.78 1013.01 1013.09 1013.28 1013.35 1013.46 1013.33 1012.90 1012.56 1012.43 1012.32 1012.27 1012.30 1012.19 1012.35 1012.51 1012.55 1012.64 1012.95 1013.30 1013.63 1014.06 1014.36 1014.64 1015.08 1015.53 1015.70
1011.79 1011.95 1012.06 1012.35 1012.62 1013.21 1013.86 1014.12 1014.09 1014.13 1014.11 1014.17 1014.19 1014.14 1014.18 1014.01 1013.86 1013.74 1013.61 1013.46 1013.47 1013.42 1013.50 1013.43 1013.22 1012.85 1012.69 1012.64 1012.75 1012.99 1013.13 1013.30 1013.36 1013.18 1012.86 1012.37 1012.40 1012.59 1012.72 1012.73 1012.77 1012.84 1012.92 1013.03 1013.13 1013.24 1013.42 1013.48 1013.71 1014.16 1014.57 1015.00 1015.32 1015.67
1011.63 1011.87 1012.30 1012.64 1012.84 1013.84 1014.51 1014.69 1014.67 1014.51 1014.60 1014.85 1014.83 1015.04 1015.13 1015.00 1014.86 1014.48 1014.17 1014.05 1013.96 1014.00 1013.85 1013.56 1013.07 1012.50 1012.36 1012.48 1012.58 1012.77 1012.88 1012.95 1013.15 1013.01 1012.82 1012.59 1012.52 1012.67 1012.86 1012.95 1012.99 1012.95 1012.96 1013.04 1013.19 1013.25 1013.31 1013.56 1013.67 1013.77 1014.14 1014.58 1014.95 1015.18
1011.98 1012.43 1012.85 1013.06 1013.95 1014.23 1014.63 1014.80 1014.79 1014.89 1015.00 1015.12 1015.37 1015.39 1015.49 1015.24 1015.22 1015.06 1014.87 1014.65 1014.55 1014.43 1013.92 1013.13 1012.72 1012.07 1011.86 1012.02 1012.10 1012.22 1012.46 1012.70 1012.84 1012.80 1012.67 1012.59 1012.56 1012.62 1012.75 1012.80 1012.93 1013.10 1013.13 1013.04 1013.20 1012.91 1012.99 1012.90 1012.83 1013.21 1013.66 1013.96 1014.05 1014.26
1012.37 1012.56 1013.49 1013.80 1014.22 1014.82 1015.00 1015.15 1015.10 1015.05 1015.33 1015.46 1015.68 1015.75 1015.79 1015.68 1015.71 1015.63 1015.41 1015.26 1014.86 1013.82 1013.09 1012.52 1012.38 1012.27 1012.11 1012.05 1012.02 1011.98 1012.05 1012.14 1012.24 1012.30 1012.29 1012.30 1012.43 1012.44 1012.60 1012.45 1012.63 1012.67 1012.57 1012.48 1012.39 1012.58 1012.55 1012.45 1012.54 1012.79 1012.98 1013.12 1013.40 1013.74
1012.50 1012.98 1013.78 1014.27 1014.90 1015.13 1015.80 1015.45 1015.55 1015.64 1015.80 1015.98 1016.18 1016.35 1016.41 1016.24 1015.97 1016.17 1015.83 1015.26 1014.57 1013.30 1012.69 1012.48 1012.25 1012.09 1012.15 1011.92 1011.83 1011.75 1011.78 1011.84 1012.05 1012.09 1012.04 1011.98 1011.89 1011.88 1011.85 1011.80 1011.86 1011.94 1011.99 1011.78 1011.74 1011.88 1011.89 1011.72 1011.87 1012.18 1012.58 1012.89 1013.08 1013.45
1012.51 1013.53 1014.20 1014.75 1015.19 1015.93 1016.00 1015.91 1015.92 1016.08 1016.37 1016.54 1016.89 1017.18 1016.99 1016.80 1016.68 1016.55 1016.15 1015.20 1013.78 1013.17 1013.03 1013.03 1012.78 1012.55 1012.08 1011.92 1011.90 1011.70 1011.50 1011.54 1011.62 1011.68 1011.74 1011.76 1011.78 1011.45 1011.41 1011.39 1011.29 1011.28 1011.33 1011.34 1011.48 1011.68 1011.71 1011.77 1011.83 1011.99 1012.09 1012.32 1012.79 1013.54
1012.98 1014.45 1014.85 1015.40 1015.48 1016.06 1016.41 1016.48 1016.60 1016.70 1016.89 1016.93 1017.30 1017.34 1017.35 1017.19 1017.04 1016.59 1015.85 1014.72 1014.20 1014.03 1013.85 1013.72 1013.57 1013.28 1012.88 1012.25 1011.87 1011.53 1011.38 1011.58 1011.73 1011.82 1011.44 1011.45 1011.42 1011.37 1011.24 1011.16 1010.98 1010.89 1010.94 1011.27 1011.58 1011.56 1011.77 1011.61 1011.81 1012.15 1012.38 1012.70 1012.90 1013.46
1013.63 1014.55 1014.92 1014.90 1015.53 1015.84 1016.23 1016.79 1016.84 1016.90 1016.84 1017.21 1017.32 1017.64 1017.77 1017.50 1017.27 1016.53 1015.60 1015.01 1014.72 1014.33 1014.21 1014.03 1013.75 1013.31 1013.00 1012.73 1012.22 1011.87 1011.72 1011.56 1011.71 1011.77 1011.51 1011.27 1011.36 1011.40 1011.52 1011.66 1011.52 1011.14 1010.74 1010.81 1011.00 1011.55 1011.77 1011.85 1012.14 1012.36 1012.53 1012.49 1012.74 1013.53
1014.20 1014.54 1014.71 1014.75 1014.95 1015.40 1015.90 1016.11 1016.42 1016.68 1016.88 1016.97 1017.18 1017.63 1017.67 1017.71 1017.04 1015.81 1015.20 1015.03 1014.80 1014.37 1014.22 1013.88 1013.59 1013.21 1012.76 1012.34 1011.97 1011.67 1011.51 1011.56 1011.73 1011.78 1011.68 1011.51 1011.51 1011.40 1011.43 1011.49 1011.55 1011.06 1010.68 1010.87 1010.95 1011.12 1011.69 1011.96 1012.18 1012.30 1012.66 1012.88 1013.19 1013.60
1014.59 1014.73 1014.90 1014.93 1015.00 1015.19 1015.51 1015.94 1016.16 1016.15 1016.02 1016.05 1016.51 1017.02 1016.98 1016.43 1016.19 1015.66 1015.24 1015.11 1014.94 1014.45 1014.02 1013.52 1013.09 1012.97 1012.61 1012.33 1011.96 1011.64 1011.55 1011.63 1011.77 1011.87 1011.82 1012.01 1011.89 1011.77 1011.56 1011.40 1011.35 1011.21 1011.14 1011.03 1011.17 1011.48 1011.88 1012.02 1012.33 1012.67 1013.13 1013.62 1013.87 1014.10
1015.35 1015.49 1015.41 1015.37 1015.40 1015.49 1015.52 1015.68 1015.69 1015.47 1015.32 1015.57 1015.90 1015.88 1015.77 1015.52 1015.61 1015.75 1015.64 1015.60 1015.13 1014.69 1014.32 1013.84 1013.47 1013.12 1012.76 1012.63 1012.37 1012.18 1012.12 1012.04 1012.13 1012.18 1012.33 1012.63 1012.64 1012.82 1012.50 1012.21 1012.06 1012.02 1011.90 1011.84 1011.96 1012.21 1012.47 1012.65 1012.88 1013.25 1013.66 1013.95 1014.30 1014.54
1016.66 1016.71 1016.49 1016.33 1016.26 1015.95 1015.75 1015.68 1015.72 1015.63 1015.50 1015.38 1015.41 1015.47 1015.39 1015.47 1015.94 1016.19 1016.07 1015.73 1015.64 1015.42 1015.00 1014.65 1014.30 1013.94 1013.63 1013.40 1013.29 1013.08 1012.80 1012.62 1012.46 1012.31 1012.50 1013.11 1013.77 1013.98 1013.68 1013.43 1013.38 1013.32 1013.17 1013.16 1013.47 1013.58 1013.42 1013.78 1013.92 1014.36 1014.71 1015.02 1015.22 1015.26
1017.62 1017.68 1017.68 1017.50 1017.20 1016.85 1016.84 1016.75 1016.50 1016.22 1016.00 1015.76 1015.62 1015.70 1015.59 1015.70 1016.03 1016.55 1016.63 1016.53 1016.23 1015.80 1015.38 1015.14 1015.07 1014.94 1014.58 1014.57 1014.40 1014.03 1013.84 1013.80 1013.48 1013.12 1013.33 1013.81 1014.20 1014.41 1014.44 1014.41 1014.34 1014.29 1014.30 1014.48 1014.88 1014.88 1014.89 1015.05 1015.15 1015.29 1015.44 1015.61 1015.43 1015.27
1018.74 1019.07 1019.22 1019.02 1018.44 1018.11 1017.90 1017.80 1017.39 1016.96 1016.59 1016.38 1016.08 1016.01 1015.94 1016.07 1016.46 1017.11 1017.39 1017.03 1016.75 1016.62 1016.44 1016.30 1016.08 1016.02 1015.78 1015.48 1015.18 1014.83 1014.66 1014.84 1014.57 1014.40 1014.44 1014.72 1014.99 1015.09 1015.12 1015.12 1015.11 1015.07 1015.07 1015.25 1015.60 1015.49 1015.47 1015.49 1015.49 1015.49 1015.52 1015.49 1015.29 1015.12
1019.91 1020.10 1020.18 1020.20 1019.63 1019.22 1019.24 1019.10 1018.53 1018.03 1017.54 1017.26 1017.13 1017.14 1017.05 1017.09 1017.45 1017.94 1017.83 1017.85 1017.85 1017.75 1017.61 1017.38 1017.15 1016.96 1016.66 1016.45 1016.33 1016.02 1015.75 1015.55 1015.19 1015.10 1015.05 1015.09 1015.16 1015.33 1015.38 1015.38 1015.36 1015.33 1015.40 1015.79 1015.81 1015.73 1015.68 1015.66 1015.62 1015.55 1015.44 1015.31 1015.08 1014.84
Wind_Speed
12 15 13 12 14 16 14 15 15 19 11 20 22 23 21 19 18 7 1 4 1 3 2 2 1 2 1 2 2 2 3 1 1 1 1 1 1 1 2 2 4 6 4 4 3 3 7 3 2 1 3 2 3 3
13 12 15 12 12 13 15 14 15 18 20 23 22 24 22 21 19 10 2 2 2 3 3 1 2 1 1 3 1 2 0 2 3 2 1 1 2 1 2 3 3 2 4 3 5 6 0 6 2 2 3 4 2 4
11 12 14 16 15 15 16 15 16 17 20 19 23 24 23 22 20 12 2 4 2 2 4 2 2 3 1 1 2 2 1 2 1 2 1 1 3 2 2 4 1 4 3 2 5 3 5 6 5 5 2 5 4 4
9 11 12 13 15 14 15 17 17 20 25 16 24 24 24 23 20 12 3 4 1 1 3 1 1 4 2 2 0 1 1 0 1 0 1 2 2 2 3 2 3 2 4 5 5 9 3 4 3 7 6 7 6 4
7 9 11 12 11 15 14 16 17 17 22 19 25 24 24 23 21 8 1 3 2 2 2 1 3 2 0 2 3 2 2 2 2 1 1 3 1 0 2 2 5 6 7 5 5 2 4 1 3 4 6 5 7 6
8 7 9 10 12 10 14 13 16 17 18 21 21 24 24 22 20 4 2 5 6 4 1 2 2 2 1 2 4 2 1 1 1 2 3 1 2 1 2 4 6 8 5 5 2 3 4 7 6 4 5 5 5 7
7 7 8 9 9 11 11 14 16 17 18 20 7 23 23 24 10 3 2 0 11 4 2 2 2 2 1 1 1 2 1 2 1 2 2 1 2 3 3 5 6 7 8 4 5 6 3 4 4 5 8 7 8 7
7 7 9 8 10 11 13 13 15 15 16 14 14 16 16 21 10 2 3 7 2 3 1 2 1 2 4 3 3 1 2 1 2 1 1 2 1 2 7 10 6 3 2 5 7 3 4 7 7 7 7 7 8 7
8 9 6 7 9 10 12 13 14 15 15 12 10 4 6 3 3 3 10 4 1 1 3 3 4 3 2 1 3 1 1 2 0 2 2 1 4 9 10 7 7 7 6 4 7 7 6 6 7 6 7 7 8 6
8 9 8 8 8 10 12 13 15 15 13 7 4 4 3 3 25 15 2 2 1 1 1 3 3 3 3 3 2 4 0 2 2 4 3 3 7 12 11 7 5 2 7 10 6 4 5 5 7 7 7 7 8 8
10 9 8 8 6 9 11 12 15 16 1 2 2 2 0 7 3 3 4 3 3 2 4 4 3 5 2 3 3 1 3 2 1 3 2 3 5 4 4 5 4 2 9 8 3 3 8 7 9 8 7 7 7 8
10 8 8 7 4 8 11 11 15 4 3 4 3 0 2 1 2 5 4 3 4 5 5 4 3 3 2 0 3 0 3 2 5 3 1 5 4 5 4 3 4 4 4 7 4 6 7 8 8 8 7 7 7 7
9 8 8 5 2 5 9 10 12 9 3 1 1 2 2 1 4 6 7 4 4 4 3 3 3 3 2 2 3 2 4 5 2 2 5 6 3 5 6 2 3 5 5 7 4 5 6 7 7 7 8 6 8 8
6 6 5 5 0 4 8 9 3 4 3 1 2 2 2 3 0 2 3 2 2 3 6 5 3 3 2 2 3 4 2 3 2 3 7 1 5 7 6 1 1 2 4 5 5 5 6 6 6 7 7 7 9 9
4 5 6 4 1 3 7 9 3 2 2 2 2 1 2 3 2 1 1 2 1 1 3 4 3 2 2 3 2 3 3 4 6 6 2 3 5 5 6 2 1 3 4 4 3 3 4 5 6 6 7 7 7 7
3 1 3 5 3 2 6 6 2 1 2 3 1 2 1 1 3 2 2 3 2 2 2 2 3 3 4 3 4 7 6 6 3 1 3 5 6 5 5 3 1 1 2 3 4 4 5 6 7 7 7 7 8 8
6 1 3 5 4 3 5 3 4 4 2 3 2 2 2 2 3 2 2 2 1 1 1 1 3 2 2 3 3 3 4 2 2 2 3 3 5 6 6 4 2 1 2 3 4 4 5 5 6 4 6 5 7 6
1 3 6 8 5 2 3 2 2 1 1 1 2 2 2 1 1 2 3 2 1 1 1 2 1 1 1 2 2 1 1 1 1 2 4 3 4 5 5 5 3 1 1 2 4 4 4 6 6 5 4 5 5 4
4 5 10 10 4 4 3 2 2 1 2 1 1 2 2 2 2 2 2 2 2 1 2 1 2 2 1 0 0 1 1 1 1 2 4 4 0 3 3 4 3 2 1 2 4 4 4 6 4 4 4 5 4 4
10 11 11 8 4 3 2 1 1 1 1 1 2 2 1 2 2 2 2 1 0 0 2 3 3 2 3 2 1 2 3 3 1 3 3 2 1 1 1 1 2 2 2 2 1 4 4 3 3 4 5 6 5 5
8 8 8 4 3 3 3 2 1 0 1 1 2 2 1 1 0 1 1 1 2 3 3 3 3 4 3 2 1 2 3 3 4 4 4 3 2 1 2 3 2 2 3 3 4 4 7 5 5 5 5 4 5 5
3 9 3 2 3 2 3 1 1 1 1 1 1 1 2 2 1 1 1 3 4 4 4 3 3 3 4 5 5 4 5 5 5 4 6 5 3 2 2 3 3 3 4 4 4 5 5 5 4 5 7 6 7 5
9 4 3 2 3 2 3 1 2 1 2 1 2 0 1 2 1 2 2 3 4 4 3 2 4 3 4 6 6 6 6 6 4 4 5 5 5 4 4 4 4 5 5 5 4 4 5 7 9 6 4 4 4 3
7 3 2 2 4 2 1 2 2 2 2 2 3 2 3 3 1 2 3 4 4 1 2 4 3 4 4 3 2 4 5 4 4 3 4 4 4 5 4 4 4 4 5 2 3 4 3 4 7 5 6 6 5 4
6 1 5 1 2 3 2 2 1 2 3 4 4 3 2 2 2 3 4 4 3 1 1 2 2 2 4 5 4 4 5 1 3 5 4 4 3 3 3 3 4 3 1 2 3 4 3 3 3 4 4 3 5 5
3 3 6 6 2 4 4 4 4 5 2 2 4 1 0 2 0 6 4 2 1 1 1 2 5 5 4 4 6 6 4 3 2 2 4 2 3 4 3 2 2 4 2 2 3 3 3 3 3 6 5 6 10 5
1 2 1 1 2 3 2 2 1 2 3 4 2 2 2 2 5 5 1 2 2 3 3 4 4 5 7 6 5 5 2 1 4 3 1 2 2 1 2 2 2 4 2 3 3 4 5 4 5 5 4 3 2 3
2 1 2 3 2 1 2 3 4 5 3 2 3 3 5 7 5 2 1 1 3 5 5 6 4 2 5 3 4 3 1 1 2 3 2 3 3 3 4 3 2 6 4 4 4 5 3 4 5 5 4 3 2 1
0 2 2 1 1 1 2 4 3 2 1 3 3 3 3 2 1 2 3 3 4 3 4 5 5 6 1 1 3 4 3 2 1 4 4 2 4 6 6 4 5 4 4 6 15 10 8 6 5 4 4 3 2 2
1 2 1 2 2 3 2 2 0 1 1 1 1 1 1 1 2 1 3 5 5 5 5 4 3 4 3 3 3 5 6 5 4 2 4 3 2 2 4 5 6 5 4 5 5 5 9 7 6 5 4 3 2 2
1 2 2 1 2 1 2 2 2 1 1 1 0 1 1 1 2 2 5 5 4 4 4 5 3 5 5 6 4 3 6 7 7 9 9 6 4 4 4 5 4 4 4 5 4 3 3 2 1 1 1 3 5 4
3 1 2 2 3 3 4 3 1 1 1 1 1 0 1 1 1 2 4 5 4 5 8 7 6 6 6 4 3 4 10 2 5 6 8 5 4 3 3 3 3 3 3 3 3 3 2 2 2 3 3 5 5 5
2 2 2 2 4 5 4 3 3 3 2 1 2 2 2 2 2 1 1 2 2 3 3 4 4 4 5 5 5 5 9 6 12 15 15 14 12 9 3 2 3 4 5 3 3 3 4 4 3 4 5 6 7 7
Wind_Direction
335 354 350 348 3 355 347 1 341 350 296 195 187 179 178 172 175 165 119 168 160 262 281 42 324 258 145 279 270 148 98 268 142 218 248 281 262 213 317 202 181 178 176 202 200 218 278 154 48 58 189 53 63 67
344 334 349 348 357 360 352 345 346 346 326 194 188 179 175 170 173 184 166 159 163 257 296 2 352 19 340 130 330 175 296 156 208 210 252 336 277 192 289 276 2 283 198 207 184 218 132 189 61 57 46 115 79 89
342 332 340 351 355 354 356 345 344 334 330 206 184 179 172 170 173 176 146 136 183 259 270 178 206 141 226 262 93 157 191 34 67 107 359 314 262 103 249 240 322 248 120 238 21 317 198 188 192 151 149 111 99 91
329 341 337 338 347 347 350 353 352 346 346 211 181 180 171 172 171 170 167 174 239 279 259 154 165 113 7 256 202 62 9 31 57 56 214 248 250 67 270 259 233 213 123 216 258 279 236 241 187 173 175 122 111 90
312 328 338 341 335 348 340 355 355 344 346 339 182 177 172 169 166 159 122 196 227 179 299 83 121 82 99 247 188 188 239 219 196 159 178 230 259 33 232 12 248 180 195 177 228 321 115 108 74 102 121 153 145 138
306 311 327 334 340 328 352 340 344 353 347 343 190 169 166 161 144 127 214 202 193 170 284 281 127 129 119 207 155 183 235 256 280 203 227 224 112 140 282 248 255 189 209 216 199 85 71 111 90 29 105 114 114 127
315 311 314 331 338 344 332 349 351 352 352 349 181 157 157 154 157 171 204 133 154 131 177 260 196 94 87 100 92 111 287 242 221 238 245 256 175 160 251 243 259 199 192 176 139 125 126 188 163 132 118 111 106 103
314 305 295 324 336 344 350 344 343 348 345 342 353 150 153 145 109 145 28 107 144 120 114 180 205 167 199 180 130 48 181 222 221 265 332 226 111 209 252 242 269 157 104 161 174 86 75 107 98 101 110 113 108 105
303 316 273 311 333 338 343 340 336 339 335 339 326 164 120 154 153 123 119 74 333 132 173 152 180 192 186 87 103 114 263 191 208 228 230 117 226 227 228 228 232 193 183 201 135 124 135 135 143 142 136 132 122 131
301 300 318 285 321 335 336 338 337 332 333 341 8 60 157 152 116 125 86 116 21 299 86 220 114 160 165 172 183 108 205 224 210 229 100 216 257 259 259 251 225 157 145 127 116 164 180 171 170 169 173 160 152 153
281 285 300 278 306 331 332 338 338 330 100 33 72 101 305 137 100 78 149 168 159 203 188 208 166 145 231 135 149 192 178 137 244 252 149 254 264 263 35 34 20 235 165 180 194 176 176 169 168 161 161 150 142 146
256 263 277 269 297 331 347 345 346 357 16 66 95 144 56 77 102 156 171 152 184 203 163 155 167 106 133 324 109 229 117 83 240 152 105 261 257 331 343 17 358 324 181 154 145 146 159 157 152 150 149 145 145 135
240 256 283 208 282 333 355 4 6 101 148 135 80 119 179 119 162 188 181 178 175 159 149 143 113 118 122 77 82 127 176 217 99 180 231 238 343 346 331 1 37 18 84 113 101 105 114 120 126 139 139 132 125 123
238 263 223 174 303 356 356 353 34 341 308 334 327 155 228 151 246 41 357 68 60 91 139 125 110 126 125 137 139 178 138 128 219 237 236 309 317 313 316 331 121 135 135 130 142 136 135 130 129 122 129 136 135 140
243 277 177 159 207 348 338 341 301 33 9 14 329 343 92 86 91 79 96 120 6 134 110 106 89 127 149 126 170 106 150 233 215 232 264 309 321 322 326 309 323 142 160 172 140 130 131 129 128 128 141 136 126 129
217 83 200 160 168 0 346 327 340 53 46 348 349 325 78 250 128 121 79 91 357 66 60 57 146 174 182 151 154 202 172 221 247 300 281 322 332 333 343 336 326 81 150 151 151 153 147 155 154 150 136 136 145 150
169 193 203 179 147 78 25 32 26 38 352 340 58 29 334 47 51 51 61 83 74 103 160 160 198 151 91 178 217 192 205 154 173 284 283 310 328 338 349 10 19 19 141 145 140 143 151 139 123 110 145 165 153 158
150 180 169 162 138 116 47 35 83 59 26 349 3 22 8 3 23 82 89 128 113 85 21 78 294 232 231 189 244 232 91 214 230 253 305 321 358 9 12 1 356 282 193 131 134 134 120 130 153 183 143 143 121 140
166 165 164 142 97 84 69 35 1 129 222 55 347 74 355 341 9 353 44 75 41 119 131 196 230 199 221 245 205 128 151 162 221 294 293 294 82 36 23 12 11 30 137 159 171 178 183 182 175 163 164 157 177 178
181 161 142 103 69 87 86 89 301 78 91 276 79 37 353 340 331 329 357 103 159 266 232 208 217 221 140 161 179 148 209 211 210 311 302 315 256 115 35 278 285 281 196 172 197 182 157 167 193 175 171 178 173 199
91 125 69 67 57 54 105 135 119 32 109 67 16 337 329 298 252 28 339 163 192 226 246 215 228 258 223 203 195 223 244 207 223 216 262 292 272 213 229 242 216 215 217 208 215 229 213 211 195 180 181 194 199 196
110 98 89 41 85 50 76 9 359 84 94 96 72 71 350 338 329 99 158 193 232 233 213 202 196 232 271 275 255 228 235 245 251 257 276 282 271 265 247 220 164 219 217 223 209 219 218 211 195 188 187 196 192 181
94 60 77 93 105 112 244 267 160 171 142 231 119 3 261 267 314 14 255 234 253 244 246 276 267 253 251 267 268 265 255 251 246 231 243 243 244 245 241 232 205 215 234 241 219 205 222 211 204 182 188 197 167 173
116 66 95 111 101 178 61 173 20 142 169 178 185 252 231 197 166 242 253 256 243 268 43 338 356 327 315 293 259 245 246 222 248 259 234 233 243 253 238 240 236 222 223 234 197 214 214 214 207 194 185 170 164 192
93 220 105 126 150 90 112 153 198 156 215 203 202 285 237 168 203 236 228 267 351 58 18 343 306 273 272 291 299 302 324 234 222 237 257 211 235 266 283 272 270 261 183 157 223 197 197 167 162 156 155 150 156 181
110 242 167 177 186 158 184 149 190 211 166 185 231 182 86 170 188 247 231 247 295 256 292 310 305 298 280 239 281 298 295 320 355 289 292 295 219 191 221 248 302 299 247 188 151 169 185 158 139 134 144 171 191 162
189 197 191 344 117 109 95 63 83 126 165 209 214 141 132 176 243 255 303 350 332 305 307 297 278 278 284 286 286 281 252 251 206 210 282 7 6 7 149 168 257 271 316 133 131 141 146 145 157 169 153 79 120 158
28 341 213 178 182 173 150 157 178 208 219 189 121 180 187 195 231 255 238 351 296 306 291 280 253 270 295 299 316 319 8 49 99 103 95 39 20 16 14 25 39 82 65 57 59 59 73 107 108 106 115 123 115 98
331 10 288 166 94 193 208 191 218 215 81 133 172 218 244 241 162 12 352 319 306 307 344 351 350 336 349 14 2 13 2 13 63 95 82 38 13 11 355 16 43 39 37 68 75 76 76 76 82 87 86 83 61 31
61 354 313 152 194 218 216 158 138 58 342 321 343 322 292 27 82 0 345 359 358 339 320 304 315 341 346 355 347 12 19 11 3 80 121 107 105 316 13 38 42 29 32 53 53 34 48 40 40 32 33 8 348 297
342 5 17 277 255 14 33 345 293 251 279 269 264 212 247 51 118 47 14 340 317 323 358 7 20 17 27 17 358 14 45 13 17 54 69 73 65 51 40 32 28 37 45 58 60 63 53 49 69 63 346 318 303 322
2 69 117 318 294 305 20 24 319 285 160 241 179 180 241 197 88 26 359 350 6 24 20 21 19 11 357 351 355 46 64 25 45 57 64 69 58 42 42 32 33 45 55 61 60 60 62 39 344 337 318 313 303 300
22 18 355 3 343 354 331 33 21 352 9 31 56 9 31 22 88 321 6 37 28 1 350 344 347 343 357 18 21 26 33 19 56 68 68 68 69 65 69 44 43 38 38 30 18 16 2 344 324 317 308 301 298 295